Wind_Speed
39 40 40 40 42 42 43 44 44 44 44 43 43 44 44 44 43 42 41 41 40 40 41 40 40 39 38 38 38 37 36 36 36 35 35 34 33 33 33 32 32 31 30
38 39 40 41 41 42 43 44 44 45 45 44 44 43 44 45 44 44 43 43 42 41 41 42 41 40 40 39 39 39 38 37 36 36 36 36 35 34 34 34 34 34 33
36 38 39 40 41 42 43 44 44 45 46 46 46 45 45 45 45 44 44 44 44 43 42 42 42 42 41 41 40 39 38 39 38 38 37 37 36 36 35 35 35 35 35
36 36 38 39 40 42 42 44 45 45 45 46 47 47 47 45 45 45 45 46 45 44 44 44 43 42 42 42 41 41 40 39 39 39 39 38 38 37 37 36 36 35 36
33 34 37 39 40 41 43 43 45 46 45 45 45 47 47 46 45 45 45 46 46 45 45 44 43 43 42 42 42 41 41 41 40 40 40 39 39 39 38 37 36 36 37
31 33 35 38 40 41 42 43 44 45 46 46 46 47 47 46 45 45 45 45 45 44 45 45 44 43 43 44 43 43 42 41 41 41 41 41 41 41 40 40 39 39 38
31 33 35 37 38 40 41 43 44 44 45 46 46 46 47 47 46 46 46 46 46 45 45 46 45 44 44 44 44 44 44 43 43 43 43 43 43 42 42 42 42 41 40
30 32 34 35 37 39 39 41 42 43 45 46 46 46 46 47 46 46 47 46 46 46 44 46 46 45 45 45 45 45 45 45 45 45 45 45 44 44 44 44 43 42 41
28 30 31 33 35 38 39 40 41 43 44 45 47 47 47 47 47 46 46 47 47 47 45 45 47 47 47 46 46 46 47 47 46 46 47 46 46 46 46 46 46 45 44
28 29 31 32 35 36 39 40 41 41 42 44 46 47 46 47 47 47 47 47 46 47 48 47 46 47 47 46 46 46 47 47 47 47 46 47 47 46 47 47 46 46 45
27 28 30 30 33 35 37 39 39 40 41 43 45 46 46 47 48 47 47 47 47 48 48 49 48 47 47 47 48 49 48 48 47 47 47 47 47 47 47 47 47 46 46
26 27 28 29 31 33 36 38 39 40 41 42 43 44 45 45 47 47 47 48 48 48 49 49 49 49 49 50 49 49 49 49 48 48 48 48 48 48 48 48 48 48 48
25 26 27 29 30 32 34 36 38 39 40 41 43 43 44 44 45 45 46 47 47 48 48 49 49 49 49 49 48 48 48 48 47 47 47 47 48 48 48 48 48 48 47
26 26 26 28 29 31 33 34 36 37 38 40 42 44 44 44 44 44 44 44 45 46 47 47 47 47 47 48 48 48 49 48 48 48 47 48 48 48 48 48 47 47 47
27 27 27 28 29 30 31 33 35 37 38 39 41 43 44 45 45 45 43 43 43 44 46 46 46 46 46 47 47 48 48 49 49 48 48 48 49 49 49 49 49 48 47
28 28 27 27 29 30 31 32 34 35 38 40 42 43 45 45 45 44 44 43 44 44 45 45 46 46 45 46 46 47 47 48 48 48 48 49 49 49 50 50 50 50 49
27 27 27 28 29 29 30 32 33 34 36 38 40 42 43 44 45 45 45 44 44 45 45 45 45 44 44 45 45 46 46 46 47 47 47 47 48 49 50 50 50 50 49
27 28 29 29 29 29 30 31 32 34 35 37 38 39 40 41 43 45 45 45 44 44 43 43 44 44 44 45 45 45 45 45 46 46 46 45 45 47 48 49 49 49 49
28 28 30 30 30 30 30 31 32 33 34 35 36 38 39 41 42 43 42 43 44 43 43 43 43 43 43 44 44 44 45 46 47 47 47 47 47 47 47 48 49 49 50
28 28 29 29 30 31 30 30 31 32 32 33 35 37 39 40 41 42 42 41 42 42 43 43 43 43 43 44 44 45 45 46 47 47 47 48 48 48 48 48 48 48 49
29 29 29 29 30 31 32 31 30 30 32 33 34 35 37 38 39 40 41 41 41 41 42 43 43 43 43 43 44 44 45 45 46 46 47 47 48 48 48 49 49 49 48
30 30 30 30 30 30 31 32 32 31 32 33 33 34 35 37 37 38 39 40 41 41 41 42 42 42 42 42 42 43 43 44 44 45 45 45 46 47 48 48 48 49 48
30 31 30 30 30 30 30 31 32 32 32 32 33 34 34 35 36 37 37 38 38 39 40 40 41 41 41 42 42 41 41 41 42 43 43 44 44 45 45 46 47 47 48
30 30 30 29 29 29 30 30 31 31 31 31 32 33 34 34 35 35 36 36 37 38 38 38 39 40 40 41 41 41 40 40 40 40 41 41 42 43 43 43 44 45 46
29 29 29 29 28 28 29 29 30 30 30 30 30 31 32 33 34 34 35 36 36 37 37 37 38 38 39 40 40 40 39 39 39 38 39 38 39 39 40 41 42 43 43
28 28 28 28 27 27 27 27 28 29 29 29 29 29 29 30 31 32 33 34 35 35 35 35 36 37 38 38 39 38 38 38 37 36 36 36 37 37 39 40 40 41 42
Wind_Direction
254 251 249 247 244 242 242 242 240 239 240 241 240 240 239 241 242 242 242 242 243 243 243 243 245 247 246 247 248 248 249 251 252 253 253 253 254 255 256 257 258 259 260
255 252 249 247 244 241 241 240 239 239 239 240 240 241 241 241 242 243 243 243 244 244 245 245 245 248 249 248 249 249 250 252 253 254 254 254 254 255 257 257 259 260 261
254 253 250 247 244 241 240 240 239 240 240 241 241 240 240 241 243 242 243 244 245 246 247 247 248 249 250 249 250 250 252 253 253 254 255 255 255 256 257 258 259 260 261
255 253 250 246 243 241 240 239 239 240 240 241 241 241 241 242 243 243 243 244 245 247 248 249 249 250 251 250 250 250 252 253 253 253 254 255 256 256 257 257 258 259 261
257 253 249 245 245 243 242 241 240 239 239 240 240 240 241 242 243 243 243 244 245 247 248 250 249 249 250 250 250 250 252 252 253 253 254 255 256 258 258 257 258 259 261
258 254 251 247 245 244 243 241 239 239 240 241 241 241 241 242 242 243 244 244 245 247 248 248 249 250 250 251 251 250 251 252 252 253 254 255 256 258 259 259 260 260 261
259 254 251 248 247 245 245 242 240 240 241 241 241 241 241 241 243 243 245 246 246 247 248 248 249 250 251 251 252 252 253 253 253 254 254 254 255 257 258 259 260 260 261
260 256 253 251 248 246 245 243 242 241 241 240 241 241 242 242 243 244 246 247 247 247 249 249 250 250 251 251 252 253 254 255 255 256 256 256 255 256 257 258 259 259 260
264 259 256 253 249 246 245 243 242 242 241 239 240 241 242 242 243 245 246 247 246 246 247 249 250 250 250 251 254 255 255 255 257 257 257 257 257 257 258 258 258 259 261
267 262 258 254 250 248 246 244 244 244 243 241 241 241 242 244 245 247 247 247 247 247 248 250 251 250 250 251 253 255 255 255 255 256 258 258 258 258 258 259 259 259 260
271 266 261 257 253 250 247 246 246 246 245 243 242 242 243 245 246 247 248 247 248 248 249 251 252 252 252 252 254 254 255 255 255 257 258 258 258 258 258 259 260 259 260
274 269 265 261 256 252 250 249 249 249 248 245 243 244 245 246 246 247 248 249 250 250 252 251 252 254 254 253 254 254 254 255 255 255 256 257 258 258 258 259 259 260 259
276 272 268 265 260 256 255 254 252 252 251 248 245 245 246 248 248 249 249 249 250 251 252 253 254 255 254 254 254 254 254 254 255 256 256 257 257 257 258 259 259 259 258
277 273 271 268 262 259 258 257 255 254 253 250 248 247 247 248 250 250 249 249 250 251 252 253 253 254 255 255 255 255 255 254 256 256 256 257 257 258 258 258 258 258 258
277 274 272 270 266 262 261 259 257 256 255 253 251 251 250 249 250 249 249 250 250 250 251 252 252 254 255 256 256 255 254 254 255 255 256 257 258 258 257 257 257 258 257
277 274 272 271 269 266 263 260 259 258 257 255 254 253 252 251 251 250 250 251 252 252 253 253 254 255 255 255 255 256 255 255 256 256 257 257 257 258 258 257 257 258 258
278 275 274 272 271 270 266 263 261 260 260 258 257 255 253 252 251 251 252 254 255 256 256 256 256 256 256 256 256 256 256 256 255 256 257 257 257 257 257 257 258 259 260
278 276 276 275 273 272 271 268 265 262 261 259 258 256 254 253 254 254 255 255 255 256 256 256 256 256 257 257 256 256 255 255 255 255 255 255 256 257 257 257 258 259 261
282 280 277 274 273 273 272 271 268 266 264 260 258 258 256 254 254 255 256 256 256 255 256 256 256 257 257 257 257 256 255 255 255 255 255 256 257 258 259 259 259 260 261
285 284 281 277 274 273 273 273 270 268 266 263 261 259 258 256 256 257 257 257 257 256 257 257 257 257 257 257 258 258 257 256 256 256 257 257 257 258 259 260 260 260 261
286 285 284 280 277 274 274 274 272 269 267 266 264 261 258 258 258 258 258 257 257 257 258 258 258 258 258 259 259 259 259 258 257 257 256 257 258 259 259 259 260 261 261
287 286 285 282 279 276 275 274 273 271 269 266 264 261 259 258 258 258 258 257 256 256 257 258 257 258 257 258 259 259 259 259 258 258 257 258 258 259 259 259 260 261 261
286 286 285 283 280 278 275 275 274 273 271 268 265 262 260 258 258 257 257 256 256 255 257 258 257 257 257 258 258 259 259 259 259 258 258 259 259 259 258 259 260 261 262
287 286 285 283 282 280 277 275 274 273 271 269 266 263 260 258 258 257 257 256 256 255 256 258 258 258 258 258 259 260 259 260 260 259 259 259 259 260 259 260 261 261 262
287 286 285 284 283 282 280 277 274 272 270 269 268 265 262 259 257 257 257 257 256 256 257 257 258 259 259 259 259 260 260 260 260 260 259 259 260 260 261 262 261 260 259
288 286 284 284 283 283 283 280 276 272 271 270 269 266 264 261 259 258 258 258 257 256 258 258 259 259 259 259 260 261 260 258 258 259 259 260 260 260 261 262 262 261 260
Height
5666 5668 5671 5674 5678 5682 5687 5692 5697 5702 5706 5711 5715 5719 5723 5728 5732 5736 5739 5743 5747 5750 5754 5757 5760 5763 5766 5769 5772 5775 5777 5780 5782 5784 5787 5789 5791 5793 5795 5797 5799 5800 5802
5656 5658 5661 5664 5668 5672 5677 5682 5687 5692 5696 5701 5705 5709 5714 5718 5722 5726 5730 5734 5738 5741 5744 5747 5751 5754 5757 5760 5762 5765 5768 5770 5773 5775 5777 5780 5783 5784 5787 5789 5791 5792 5794
5647 5649 5651 5655 5658 5663 5667 5672 5676 5681 5686 5690 5695 5699 5704 5708 5712 5717 5721 5725 5728 5732 5735 5738 5741 5744 5747 5750 5753 5756 5759 5761 5764 5766 5768 5770 5773 5775 5778 5779 5781 5783 5785
5638 5640 5643 5646 5649 5653 5657 5661 5666 5670 5675 5679 5684 5688 5694 5698 5703 5707 5711 5715 5718 5722 5725 5728 5731 5734 5737 5740 5743 5746 5749 5752 5754 5757 5759 5761 5763 5766 5769 5771 5772 5774 5775
5630 5632 5635 5638 5641 5644 5648 5652 5656 5660 5664 5668 5672 5677 5683 5688 5692 5696 5700 5704 5708 5712 5715 5718 5721 5724 5727 5730 5733 5736 5739 5741 5744 5747 5749 5751 5754 5756 5758 5761 5763 5765 5766
5622 5624 5626 5628 5632 5635 5638 5641 5645 5649 5653 5657 5661 5667 5672 5677 5682 5686 5690 5694 5698 5701 5704 5707 5710 5713 5716 5719 5722 5725 5728 5731 5734 5736 5739 5741 5743 5746 5748 5750 5752 5754 5756
5613 5615 5617 5619 5622 5625 5628 5631 5635 5639 5643 5646 5651 5656 5662 5667 5671 5676 5679 5683 5687 5690 5694 5697 5700 5703 5706 5708 5711 5714 5717 5720 5723 5725 5728 5730 5733 5735 5737 5739 5741 5744 5746
5606 5607 5609 5611 5613 5616 5618 5621 5625 5629 5632 5637 5641 5646 5651 5656 5660 5664 5668 5672 5676 5680 5683 5686 5688 5692 5694 5697 5700 5703 5706 5709 5711 5714 5716 5719 5721 5723 5726 5728 5730 5732 5735
5599 5600 5601 5603 5605 5607 5610 5612 5615 5619 5622 5626 5631 5636 5640 5645 5649 5653 5657 5661 5664 5668 5671 5674 5677 5680 5683 5686 5689 5692 5695 5698 5700 5703 5705 5707 5709 5711 5714 5716 5719 5721 5723
5592 5592 5593 5594 5596 5599 5601 5604 5606 5609 5612 5616 5621 5626 5629 5634 5638 5642 5646 5650 5653 5656 5660 5663 5666 5668 5671 5674 5677 5680 5683 5686 5688 5691 5693 5695 5698 5700 5702 5704 5707 5709 5712
5585 5585 5586 5587 5589 5591 5593 5595 5598 5600 5603 5607 5610 5615 5619 5622 5627 5631 5634 5638 5641 5645 5648 5651 5654 5657 5659 5662 5665 5668 5671 5673 5676 5678 5681 5684 5686 5688 5690 5692 5695 5697 5699
5579 5578 5579 5580 5581 5583 5585 5587 5589 5591 5594 5597 5600 5604 5608 5611 5615 5619 5623 5626 5629 5633 5636 5639 5642 5644 5647 5649 5652 5655 5658 5661 5663 5666 5669 5671 5673 5676 5678 5681 5683 5686 5687
5573 5573 5573 5573 5574 5575 5577 5578 5580 5582 5584 5587 5590 5594 5597 5601 5604 5608 5610 5614 5616 5620 5623 5626 5629 5631 5634 5636 5639 5642 5645 5648 5650 5653 5656 5658 5660 5663 5666 5668 5671 5673 5675
5567 5566 5566 5566 5567 5568 5569 5570 5571 5573 5575 5577 5581 5584 5588 5590 5593 5596 5599 5602 5604 5608 5611 5614 5616 5619 5621 5624 5626 5629 5632 5635 5638 5640 5643 5645 5647 5650 5653 5655 5658 5660 5662
5561 5560 5560 5560 5560 5560 5561 5562 5563 5564 5566 5568 5571 5574 5577 5580 5583 5586 5588 5590 5593 5595 5598 5601 5604 5606 5609 5611 5613 5616 5619 5622 5624 5627 5629 5632 5634 5637 5639 5642 5645 5647 5649
5554 5554 5553 5553 5552 5552 5553 5553 5554 5555 5557 5559 5562 5564 5566 5569 5572 5575 5577 5579 5582 5584 5587 5589 5591 5594 5596 5598 5600 5603 5605 5608 5611 5613 5616 5618 5621 5623 5626 5628 5631 5634 5636
5547 5546 5546 5546 5545 5545 5545 5545 5545 5546 5547 5549 5551 5553 5555 5558 5560 5563 5566 5568 5570 5573 5575 5577 5579 5581 5583 5585 5587 5589 5592 5595 5597 5599 5602 5604 5607 5609 5612 5615 5617 5620 5622
5540 5539 5538 5538 5537 5537 5536 5536 5536 5537 5537 5538 5540 5542 5544 5547 5549 5551 5554 5556 5559 5561 5563 5565 5567 5569 5571 5572 5574 5576 5578 5581 5583 5586 5588 5591 5594 5596 5598 5601 5603 5606 5608
5533 5531 5530 5529 5529 5528 5528 5527 5527 5527 5528 5528 5529 5531 5533 5536 5538 5540 5542 5545 5547 5549 5551 5553 5555 5557 5558 5559 5561 5563 5565 5567 5570 5572 5575 5577 5580 5583 5585 5587 5590 5592 5594
5525 5523 5522 5521 5520 5519 5519 5518 5518 5518 5518 5518 5519 5520 5522 5524 5526 5529 5531 5533 5535 5537 5539 5541 5543 5544 5546 5547 5548 5550 5552 5555 5557 5559 5561 5564 5566 5569 5570 5573 5575 5577 5580
5516 5515 5513 5512 5511 5510 5509 5508 5508 5508 5508 5508 5509 5510 5511 5513 5515 5517 5519 5521 5523 5525 5527 5529 5531 5532 5533 5534 5536 5537 5539 5541 5543 5546 5548 5550 5552 5554 5556 5559 5561 5563 5565
5508 5506 5504 5503 5501 5500 5499 5499 5499 5499 5498 5498 5499 5499 5501 5502 5504 5506 5507 5509 5511 5514 5515 5516 5518 5519 5521 5522 5523 5525 5526 5528 5530 5532 5534 5536 5538 5540 5542 5544 5546 5549 5551
5499 5497 5495 5494 5492 5491 5490 5490 5489 5488 5488 5488 5488 5489 5490 5491 5493 5495 5496 5498 5500 5502 5503 5504 5506 5507 5509 5510 5511 5513 5514 5516 5517 5519 5521 5523 5525 5527 5528 5530 5532 5534 5536
5490 5488 5486 5484 5483 5482 5481 5480 5479 5479 5478 5478 5478 5479 5480 5481 5482 5484 5485 5487 5488 5490 5491 5493 5494 5496 5497 5498 5500 5501 5503 5504 5505 5507 5508 5510 5512 5514 5515 5517 5518 5520 5523
5481 5479 5477 5475 5474 5473 5472 5471 5470 5469 5469 5469 5469 5469 5469 5470 5472 5473 5474 5476 5478 5479 5481 5482 5483 5485 5486 5487 5488 5490 5491 5492 5494 5495 5496 5498 5500 5501 5502 5504 5506 5508 5510
5473 5471 5469 5467 5466 5464 5463 5462 5461 5460 5460 5460 5460 5459 5460 5461 5462 5463 5465 5465 5467 5469 5470 5471 5472 5473 5475 5476 5477 5479 5480 5481 5482 5484 5485 5487 5488 5490 5491 5493 5494 5495 5497